{"data":{"norad_id":65474,"intl_designator":"2025-195S","name":"STARLINK-34998","alt_names":[],"object_type":"PAYLOAD","status":"ACTIVE","operator":null,"country":"US","launch_date":"2025-09-03","launch_site_code":"AFETR","launch_vehicle":null,"mission":null,"orbit_class":"UNKNOWN","rcs_meters":null,"size_class":null,"mass_kg":null,"dimensions":null,"purposes":["comms"],"wikipedia_slug":null,"has_3d_model":false,"image_url":null,"decayed_at":null,"tle_current":{"epoch":"2026-05-25T00:47:48.772032Z","epoch_age_seconds":62236,"freshness":"FRESH","line1":"1 65474U 25195S   26145.03320338  .00018880  00000+0  64768-3 0  9996","line2":"2 65474  53.1590 263.4700 0002520  76.8431 283.2851 15.30213130 41666","mean_motion":15.3021313,"eccentricity":0.000252,"inclination_deg":53.159,"raan_deg":263.47,"arg_perigee_deg":76.8431,"mean_anomaly_deg":283.2851,"bstar":0.00064768,"rev_number":4166,"period_min":94.104538235141,"perigee_km":473.44883104414,"apogee_km":476.90290072855,"semimajor_km":6853.3128658863,"source":"CELESTRAK","updated_at":"2026-05-25T13:38:20.815348Z"}}}